When you browse on this site, cookies collect data to enhance your experience and personalize the content and advertising you see.
Visit our Privacy Policy to learn more. By continuing to use the site, you agree to this use of cookies and data.
  • In United Kingdom
  • List of Countries
  • For 7 days
  • Water Temperature
  • Satellite Maps
  • Weather Map
  • Weather Widgets
  • user-avatar
    Login

    Hourly Weather Pivnivka

    Today, 21 June, Friday

    Time Temperature Precipitation Wind Pressure Humidity
    00:00 +20°C° 0 mm 3 mps 751 mmHg 65%
    01:00 +20°C° 0 mm 3 mps 751 mmHg 67%
    02:00 +20°C° 0 mm 3 mps 752 mmHg 68%
    03:00 +19°C° 0 mm 3 mps 752 mmHg 70%
    04:00 +20°C° 0 mm 3 mps 752 mmHg 72%
    05:00 +20°C° 0 mm 3 mps 752 mmHg 73%
    06:00 +20°C° 0 mm 3 mps 753 mmHg 75%
    07:00 +22°C° 0 mm 4 mps 753 mmHg 68%
    08:00 +25°C° 0 mm 4 mps 753 mmHg 62%
    09:00 +27°C° 0 mm 4 mps 753 mmHg 56%
    10:00 +28°C° 0 mm 4 mps 753 mmHg 52%
    11:00 +29°C° 0 mm 4 mps 753 mmHg 48%
    12:00 +30°C° 0 mm 4 mps 753 mmHg 44%
    13:00 +32°C° 0 mm 4 mps 753 mmHg 44%
    14:00 +32°C° 0 mm 4 mps 753 mmHg 43%
    15:00 +32°C° 0 mm 4 mps 753 mmHg 43%
    16:00 +32°C° 0 mm 4 mps 753 mmHg 46%
    17:00 +30°C° 0 mm 3 mps 752 mmHg 50%
    18:00 +30°C° 0 mm 3 mps 752 mmHg 53%
    19:00 +28°C° 0 mm 3 mps 752 mmHg 57%
    20:00 +26°C° 0 mm 3 mps 753 mmHg 60%
    21:00 +24°C° 0 mm 3 mps 753 mmHg 64%
    22:00 +22°C° 0 mm 3 mps 753 mmHg 65%
    23:00 +22°C° 0 mm 3 mps 753 mmHg 66%

    Tomorrow, 22 June, Saturday

    Time Temperature Precipitation Wind Pressure Humidity
    00:00 +21°C° 0 mm 3 mps 753 mmHg 67%
    01:00 +21°C° 0 mm 3 mps 753 mmHg 67%
    02:00 +21°C° 0 mm 3 mps 753 mmHg 67%
    03:00 +20°C° 0 mm 3 mps 753 mmHg 67%
    04:00 +20°C° 0 mm 3 mps 753 mmHg 68%
    05:00 +21°C° 0 mm 3 mps 754 mmHg 69%
    06:00 +21°C° 0 mm 3 mps 754 mmHg 70%
    07:00 +24°C° 0 mm 3 mps 754 mmHg 65%
    08:00 +26°C° 0 mm 3 mps 754 mmHg 59%
    09:00 +28°C° 0 mm 3 mps 754 mmHg 54%
    10:00 +29°C° 0 mm 3 mps 754 mmHg 49%
    11:00 +30°C° 0 mm 3 mps 754 mmHg 44%
    12:00 +31°C° 0 mm 3 mps 754 mmHg 39%
    13:00 +31°C° 0 mm 3 mps 754 mmHg 39%
    14:00 +31°C° 0 mm 3 mps 754 mmHg 38%
    15:00 +33°C° 0 mm 3 mps 753 mmHg 38%
    16:00 +31°C° 0 mm 3 mps 753 mmHg 42%
    17:00 +31°C° 0 mm 3 mps 753 mmHg 47%
    18:00 +30°C° 0 mm 3 mps 753 mmHg 51%
    19:00 +29°C° 0 mm 3 mps 753 mmHg 53%
    20:00 +27°C° 0 mm 3 mps 753 mmHg 56%
    21:00 +25°C° 0 mm 3 mps 753 mmHg 59%
    22:00 +24°C° 0 mm 3 mps 753 mmHg 59%
    23:00 +24°C° 0 mm 3 mps 753 mmHg 60%

    Day after tomorrow, 23 June, Sunday

    Time Temperature Precipitation Wind Pressure Humidity
    00:00 +22°C° 0 mm 3 mps 753 mmHg 61%
    01:00 +22°C° 0 mm 4 mps 753 mmHg 62%
    02:00 +21°C° 0 mm 4 mps 753 mmHg 62%
    03:00 +21°C° 0 mm 4 mps 753 mmHg 63%
    04:00 +21°C° 0 mm 4 mps 753 mmHg 65%
    05:00 +21°C° 0 mm 4 mps 753 mmHg 67%
    06:00 +21°C° 0 mm 4 mps 753 mmHg 69%
    07:00 +23°C° 0 mm 4 mps 753 mmHg 65%
    08:00 +26°C° 0 mm 4 mps 753 mmHg 61%
    09:00 +27°C° 0 mm 4 mps 754 mmHg 57%
    10:00 +29°C° 0 mm 4 mps 754 mmHg 52%
    11:00 +30°C° 0 mm 4 mps 754 mmHg 47%
    12:00 +33°C° 0 mm 3 mps 754 mmHg 42%
    13:00 +33°C° 0 mm 3 mps 754 mmHg 40%
    14:00 +33°C° 0 mm 3 mps 754 mmHg 39%
    15:00 +34°C° 0 mm 3 mps 754 mmHg 38%
    16:00 +33°C° 0 mm 3 mps 753 mmHg 42%
    17:00 +33°C° 0 mm 3 mps 753 mmHg 46%
    18:00 +31°C° 0 mm 3 mps 753 mmHg 50%
    19:00 +29°C° 0 mm 3 mps 753 mmHg 53%
    20:00 +27°C° 0 mm 3 mps 753 mmHg 56%
    21:00 +26°C° 0 mm 3 mps 753 mmHg 59%
    22:00 +25°C° 0 mm 3 mps 753 mmHg 59%
    23:00 +25°C° 0 mm 3 mps 753 mmHg 58%

    24 June, Monday

    Time Temperature Precipitation Wind Pressure Humidity
    00:00 +24°C° 0 mm 3 mps 753 mmHg 57%
    01:00 +24°C° 0 mm 3 mps 753 mmHg 59%
    02:00 +24°C° 0 mm 3 mps 753 mmHg 61%
    03:00 +22°C° 0 mm 3 mps 753 mmHg 63%
    04:00 +22°C° 0 mm 3 mps 753 mmHg 64%
    05:00 +22°C° 0 mm 4 mps 753 mmHg 65%
    06:00 +23°C° 0 mm 4 mps 753 mmHg 66%
    07:00 +25°C° 0 mm 4 mps 753 mmHg 65%
    08:00 +26°C° 0 mm 4 mps 753 mmHg 63%
    09:00 +27°C° 0 mm 5 mps 753 mmHg 62%
    10:00 +29°C° 0 mm 5 mps 753 mmHg 57%
    11:00 +30°C° 0 mm 5 mps 753 mmHg 51%
    12:00 +33°C° 0 mm 5 mps 753 mmHg 46%
    13:00 +33°C° 0 mm 5 mps 753 mmHg 46%
    14:00 +33°C° 0 mm 5 mps 753 mmHg 45%
    15:00 +34°C° 0 mm 5 mps 753 mmHg 45%
    16:00 +33°C° 0 mm 4 mps 753 mmHg 48%
    17:00 +32°C° 0 mm 4 mps 753 mmHg 50%
    18:00 +32°C° 0 mm 4 mps 753 mmHg 53%
    19:00 +29°C° 0 mm 4 mps 753 mmHg 59%
    20:00 +27°C° 0 mm 5 mps 753 mmHg 65%
    21:00 +25°C° 0 mm 5 mps 753 mmHg 71%
    22:00 +25°C° 0 mm 5 mps 754 mmHg 75%
    23:00 +23°C° 0 mm 5 mps 754 mmHg 79%

    25 June, Tuesday

    Time Temperature Precipitation Wind Pressure Humidity
    00:00 +22°C° 0 mm 5 mps 754 mmHg 83%
    01:00 +21°C° 0 mm 5 mps 754 mmHg 83%
    02:00 +21°C° 0 mm 5 mps 754 mmHg 82%
    03:00 +20°C° 0 mm 5 mps 754 mmHg 82%
    04:00 +20°C° 0 mm 6 mps 754 mmHg 79%
    05:00 +19°C° 0 mm 6 mps 755 mmHg 76%
    06:00 +19°C° 0 mm 6 mps 755 mmHg 72%
    07:00 +20°C° 0 mm 7 mps 755 mmHg 68%
    08:00 +22°C° 0 mm 7 mps 755 mmHg 64%
    09:00 +23°C° 0 mm 7 mps 756 mmHg 59%
    10:00 +24°C° 0 mm 7 mps 756 mmHg 55%
    11:00 +26°C° 0 mm 7 mps 756 mmHg 50%
    12:00 +27°C° 0 mm 7 mps 756 mmHg 46%
    13:00 +27°C° 0 mm 7 mps 756 mmHg 45%
    14:00 +27°C° 0 mm 6 mps 756 mmHg 45%
    15:00 +27°C° 0 mm 6 mps 756 mmHg 45%
    16:00 +26°C° 0 mm 6 mps 756 mmHg 48%
    17:00 +26°C° 0 mm 6 mps 756 mmHg 50%
    18:00 +25°C° 0 mm 5 mps 755 mmHg 53%
    19:00 +22°C° 0 mm 5 mps 756 mmHg 59%
    20:00 +21°C° 0 mm 4 mps 756 mmHg 64%
    21:00 +19°C° 0 mm 4 mps 756 mmHg 70%
    22:00 +18°C° 0 mm 4 mps 756 mmHg 73%
    23:00 +17°C° 0 mm 3 mps 756 mmHg 76%

    26 June, Wednesday

    Time Temperature Precipitation Wind Pressure Humidity
    00:00 +16°C° 0 mm 3 mps 756 mmHg 79%
    01:00 +16°C° 0 mm 3 mps 756 mmHg 80%
    02:00 +14°C° 0 mm 3 mps 756 mmHg 82%
    03:00 +13°C° 0 mm 3 mps 755 mmHg 83%
    04:00 +14°C° 0 mm 3 mps 755 mmHg 82%
    05:00 +16°C° 0 mm 3 mps 755 mmHg 80%
    06:00 +16°C° 0 mm 3 mps 755 mmHg 79%
    07:00 +18°C° 0 mm 3 mps 755 mmHg 72%
    08:00 +20°C° 0 mm 3 mps 755 mmHg 64%
    09:00 +21°C° 0 mm 2 mps 754 mmHg 57%
    10:00 +23°C° 0 mm 2 mps 754 mmHg 53%
    11:00 +24°C° 0 mm 2 mps 754 mmHg 49%
    12:00 +25°C° 0 mm 2 mps 753 mmHg 46%
    13:00 +25°C° 0 mm 2 mps 753 mmHg 46%
    14:00 +25°C° 0 mm 2 mps 752 mmHg 46%
    15:00 +25°C° 0 mm 2 mps 751 mmHg 46%
    16:00 +25°C° 0 mm 2 mps 751 mmHg 48%
    17:00 +24°C° 0 mm 2 mps 751 mmHg 50%
    18:00 +24°C° 0 mm 2 mps 750 mmHg 53%
    19:00 +21°C° 0 mm 2 mps 750 mmHg 58%
    20:00 +20°C° 0 mm 2 mps 750 mmHg 63%
    21:00 +18°C° 0 mm 2 mps 750 mmHg 68%
    22:00 +17°C° 0 mm 2 mps 750 mmHg 74%
    23:00 +17°C° 0 mm 2 mps 750 mmHg 79%
    Show more